Weather in Aparecida de Goiânia

Brazil     16°48′09″S   49°14′12″W
temp.,
°C
wind,
m/s
gust,
m/s
humid.,
%
clouds,
%
prec.,
mm/h
press.,
hPa
HPBL,
m
21 april, wed
wed2100:00+18sse11590 0.0 101520
03:00+16se11640 0.0 101418
06:00+15se11690 0.0 101415
09:00+21se11520 0.0 1016290
12:00+28sw13310 0.0 10141820
15:00+28sw34290 0.0 10101875
18:00+22sw23430 0.0 1012113
21:00+20nnw01480 0.0 101414
22 april, thu
thu2200:00+18n11560 0.0 101519
03:00+17ne00580 0.0 101311
06:00+15se11620 0.0 101512
09:00+22se11470 0.0 1016307
12:00+27se21350 0.0 10141418
15:00+28se22310 0.0 10112046
18:00+23ese11440 0.0 101228
21:00+20ene00460 0.0 101311
23 april, fri
fri2300:00+18n00530 0.0 101513
03:00+17e11575 0.0 101412
06:00+16ene11620 0.0 101513
09:00+22ese11471 0.0 1016265
12:00+28e23345 0.0 10141441
15:00+30ne123115 0.0 10101984
18:00+24ssw11468 0.0 101111
21:00+21nne11555 0.0 101317
24 april, sat
sat2400:00+20nnw11615 0.0 101415
03:00+18ne116711 0.0 101314
06:00+17ne11692 0.0 101411
09:00+24ene11504 0.0 1015271
12:00+30ne24342 0.0 10131927
15:00+31nnw23295 0.0 10102537
18:00+25nnw35491 0.0 1010239
21:00+22nnw136627 0.0 101298
25 april, sun
sun2500:00+20nw116933 0.0 101420
03:00+18n117380 0.0 101215
06:00+18nne117999 0.0 101312
09:00+24nnw135693 0.0 1014344
12:00+30nw34338 0.0 10122246
15:00+31wnw3432100 0.0 10092587
18:00+26wsw364898 0.0 1010440
21:00+24wnw125327 0.0 1013130